KF6ILA Weather Reports


time (UTC)temp
C
wind
direction
speed
KPH
gust
KPH
rain 1hr
cm
rain 24hr
cm
rain mn
cm
humidity
%
barometer
mb
20260510104641 18 257 8.0 14.5 0.00 0.00 0.00 14 1013.1
20260510104143 18 256 8.0 14.5 0.00 0.00 0.00 14 1013.1
20260510102652 17 258 9.7 12.9 0.00 0.00 0.00 14 1013.1
20260510101201 17 251 9.7 22.5 0.00 0.00 0.00 16 1013.3
20260510100743 16 241 14.5 22.5 0.00 0.00 0.00 17 1013.3
20260510100704 16 241 14.5 22.5 0.00 0.00 0.00 17 1013.3
20260510100207 16 248 9.7 19.3 0.00 0.00 0.00 17 1013.2
20260510095710 16 250 9.7 20.9 0.00 0.00 0.00 17 1013.3
20260510095213 16 247 12.9 20.9 0.00 0.00 0.00 18 1013.3
20260510094219 16 254 8.0 16.1 0.00 0.00 0.00 18 1013.2
20260510093722 16 257 8.0 16.1 0.00 0.00 0.00 17 1013.3
20260510092728 16 276 6.4 12.9 0.00 0.00 0.00 17 1013.3
20260510090741 16 289 6.4 14.5 0.00 0.00 0.00 18 1013.2
20260510085746 16 261 4.8 16.1 0.00 0.00 0.00 18 1013.3
20260510084752 16 258 9.7 17.7 0.00 0.00 0.00 19 1013.3
20260510083852 16 257 9.7 22.5 0.00 0.00 0.00 19 1013.4
20260510083758 16 257 9.7 22.5 0.00 0.00 0.00 19 1013.4
20260510083301 16 256 11.3 22.5 0.00 0.00 0.00 19 1013.4
20260510082422 16 253 12.9 20.9 0.00 0.00 0.00 20 1013.3
20260510082307 16 253 12.9 20.9 0.00 0.00 0.00 20 1013.3
20260510081846 16 249 14.5 20.9 0.00 0.00 0.00 20 1013.5
20260510081810 16 249 14.5 20.9 0.00 0.00 0.00 20 1013.5
20260510080816 16 257 8.0 22.5 0.00 0.00 0.00 20 1013.5
20260510080319 16 254 11.3 22.5 0.00 0.00 0.00 20 1013.5
20260510075822 16 246 16.1 22.5 0.00 0.00 0.00 20 1013.5
20260510075325 17 250 14.5 22.5 0.00 0.00 0.00 19 1013.5
20260510074331 17 254 11.3 20.9 0.00 0.00 0.00 17 1013.6
20260510073337 17 243 16.1 22.5 0.00 0.00 0.00 19 1013.5
20260510071846 17 243 16.1 29.0 0.00 0.00 0.00 20 1013.6
20260510070852 17 249 17.7 25.7 0.00 0.00 0.00 17 1013.6
20260510070355 17 250 19.3 27.4 0.00 0.00 0.00 17 1013.7
20260510065858 17 244 19.3 29.0 0.00 0.00 0.00 21 1013.6
20260510064904 17 242 20.9 27.4 0.00 0.00 0.00 23 1013.6
20260510064407 17 240 20.9 27.4 0.00 0.00 0.00 21 1013.6
20260510063502 18 242 24.1 30.6 0.00 0.00 0.00 20 1013.6
20260510063413 18 242 24.1 30.6 0.00 0.00 0.00 20 1013.6
20260510062916 18 241 22.5 30.6 0.00 0.00 0.00 19 1013.6
20260510061425 18 240 20.9 30.6 0.00 0.00 0.00 18 1013.6
20260510060928 18 240 19.3 30.6 0.00 0.00 0.00 17 1013.5
20260510060025 17 241 22.5 32.2 0.00 0.00 0.00 21 1013.5
20260510055934 17 241 22.5 32.2 0.00 0.00 0.00 21 1013.5
20260510054443 17 241 25.7 33.8 0.00 0.00 0.00 31 1013.3
20260510051958 17 242 22.5 29.0 0.00 0.00 0.00 29 1013.5
20260510051501 17 243 19.3 29.0 0.00 0.00 0.00 27 1013.5
20260510050507 17 242 20.9 30.6 0.00 0.00 0.00 33 1013.5
20260510045513 18 242 22.5 30.6 0.00 0.00 0.00 33 1013.5
20260510045016 18 244 19.3 30.6 0.00 0.00 0.00 28 1013.5
20260510043525 18 247 19.3 29.0 0.00 0.00 0.00 27 1013.3
20260510043028 17 244 20.9 29.0 0.00 0.00 0.00 32 1013.4
20260510042531 17 243 19.3 30.6 0.00 0.00 0.00 34 1013.3
20260510041538 17 242 22.5 29.0 0.00 0.00 0.00 36 1013.3
20260510040046 17 240 20.9 27.4 0.00 0.00 0.00 43 1014.0
20260510035549 17 240 20.9 30.6 0.00 0.00 0.00 44 1013.9
20260510035053 17 240 22.5 30.6 0.00 0.00 0.00 45 1013.8
20260510034555 17 240 24.1 30.6 0.00 0.00 0.00 44 1013.8
20260510033105 16 247 19.3 24.1 0.00 0.00 0.00 48 1013.6
20260510032607 16 252 16.1 20.9 0.00 0.00 0.00 50 1013.5
20260510032111 16 250 14.5 24.1 0.00 0.00 0.00 53 1013.5
20260510024632 16 251 19.3 29.0 0.00 0.00 0.00 69 1013.0
20260510023141 16 254 22.5 30.6 0.00 0.00 0.00 71 1012.9
20260510022643 16 257 22.5 30.6 0.00 0.00 0.00 70 1012.9
20260510021650 17 254 20.9 30.6 0.00 0.00 0.00 68 1012.8
20260510021153 17 259 22.5 30.6 0.00 0.00 0.00 67 1012.8
20260510020656 17 255 24.1 30.6 0.00 0.00 0.00 67 1012.9
20260510014707 18 265 24.1 32.2 0.00 0.00 0.00 64 1012.9
20260510013714 19 251 20.9 32.2 0.00 0.00 0.00 63 1012.9
20260510013217 20 254 22.5 30.6 0.00 0.00 0.00 62 1012.8
20260510012720 20 257 19.3 30.6 0.00 0.00 0.00 61 1012.9
20260510012223 20 265 22.5 33.8 0.00 0.00 0.00 60 1012.9
20260510010732 21 262 17.7 32.2 0.00 0.00 0.00 59 1013.0
20260510002756 22 269 22.5 30.6 0.00 0.00 0.00 56 1012.8
20260510002259 22 263 20.9 35.4 0.00 0.00 0.00 56 1012.9
20260510001305 22 260 22.5 35.4 0.00 0.00 0.00 54 1012.8
20260510000808 22 269 25.7 35.4 0.00 0.00 0.00 53 1012.8
20260509235814 23 274 17.7 30.6 0.00 0.00 0.00 52 1012.8
20260509234820 23 256 22.5 32.2 0.00 0.00 0.00 51 1012.9
20260509233329 23 275 25.7 37.0 0.00 0.00 0.00 49 1012.9
20260509232832 23 265 22.5 32.2 0.00 0.00 0.00 51 1012.9
20260509232335 23 270 20.9 35.4 0.00 0.00 0.00 51 1013.0
20260509231838 23 276 19.3 35.4 0.00 0.00 0.00 49 1013.0
20260509231341 24 271 20.9 33.8 0.00 0.00 0.00 51 1013.0
20260509225850 24 275 24.1 32.2 0.00 0.00 0.00 48 1013.2
20260509222908 25 279 17.7 0.0 0.00 0.00 0.00 47 1013.4
20260509221914 25 272 22.5 33.8 0.00 0.00 0.00 44 1013.4
20260509221417 25 253 16.1 33.8 0.00 0.00 0.00 41 1013.5
20260509214932 25 262 20.9 30.6 0.00 0.00 0.00 39 1014.0
20260509214435 25 264 16.1 33.8 0.00 0.00 0.00 40 1013.9
20260509211453 25 245 20.9 33.8 0.00 0.00 0.00 32 1014.3
20260509205008 25 273 20.9 32.2 0.00 0.00 0.00 34 1014.5
20260509204014 25 241 20.9 32.2 0.00 0.00 0.00 33 1014.5
20260509203517 25 270 17.7 30.6 0.00 0.00 0.00 36 1014.5
20260509195541 25 252 16.1 30.6 0.00 0.00 0.00 35 1014.9
20260509195044 25 238 17.7 30.6 0.00 0.00 0.00 33 1015.0
20260509194050 25 252 16.1 24.1 0.00 0.00 0.00 37 1015.1
20260509191605 25 253 16.1 0.0 0.00 0.00 0.00 38 1015.2
20260509184126 24 276 16.1 27.4 0.00 0.00 0.00 39 1015.3
20260509182635 23 239 17.7 27.4 0.00 0.00 0.00 36 1015.2
20260509181144 23 256 14.5 24.1 0.00 0.00 0.00 39 1015.3
20260509180647 23 256 17.7 24.1 0.00 0.00 0.00 37 1015.3
20260509175156 22 264 14.5 22.5 0.00 0.00 0.00 40 1015.3
20260509173705 22 269 16.1 24.1 0.00 0.00 0.00 42 1015.2
20260509173208 22 268 17.7 24.1 0.00 0.00 0.00 41 1015.2
20260509171717 -17 256 12.9 22.5 0.00 0.00 0.00
20260509170226 21 254 12.9 25.7 0.00 0.00 0.00 44 1015.1
20260509165232 21 259 14.5 22.5 0.00 0.00 0.00 44 1015.0
20260509164735 21 259 14.5 22.5 0.00 0.00 0.00 45 1015.0
20260509163744 21 248 14.5 25.7 0.00 0.00 0.00 45 1014.0
20260509162250 20 250 14.5 27.4 0.00 0.00 0.00 47 1014.1
20260509161753 20 257 17.7 27.4 0.00 0.00 0.00 47 1014.1
20260509160302 20 255 17.7 25.7 0.00 0.00 0.00 46 1013.9
20260509154314 20 258 14.5 24.1 0.00 0.00 0.00 42 1013.8
20260509153817 19 256 14.5 19.3 0.00 0.00 0.00 41 1013.8
20260509152823 18 246 12.9 22.5 0.00 0.00 0.00 49 1013.8
20260509152326 18 249 14.5 20.9 0.00 0.00 0.00 48 1013.8
20260509151829 18 240 12.9 22.5 0.00 0.00 0.00 51 1013.7
20260509151332 18 244 11.3 24.1 0.00 0.00 0.00 52 1013.8
20260509150338 17 245 17.7 25.7 0.00 0.00 0.00 49 1013.7
20260509145841 17 259 14.5 24.1 0.00 0.00 0.00 45 1013.9
20260509143356 16 246 17.7 25.7 0.00 0.00 0.00 50 1013.6
20260509140414 16 262 16.1 25.7 0.00 0.00 0.00 53 1013.6
20260509135420 15 258 16.1 25.7 0.00 0.00 0.00 51 1013.5
20260509134426 15 262 16.1 24.1 0.00 0.00 0.00 51 1013.5
20260509133929 15 258 14.5 24.1 0.00 0.00 0.00 52 1013.4
20260509125953 15 258 19.3 32.2 0.00 0.00 0.00 52 1013.4
20260509125456 15 256 20.9 27.4 0.00 0.00 0.00 50 1013.3
20260509124959 15 246 17.7 29.0 0.00 0.00 0.00 48 1013.2
20260509124502 15 246 20.9 32.2 0.00 0.00 0.00 45 1013.3
20260509124005 15 250 22.5 32.2 0.00 0.00 0.00 42 1013.2
20260509123508 15 242 20.9 30.6 0.00 0.00 0.00 41 1013.1
20260509121520 16 242 22.5 32.2 0.00 0.00 0.00 35 1013.2
20260509115532 16 237 20.9 32.2 0.00 0.00 0.00 26 1013.1
20260509115035 17 242 24.1 33.8 0.00 0.00 0.00 24 1013.1
20260509114538 17 245 22.5 33.8 0.00 0.00 0.00 23 1013.1
20260509113047 16 243 20.9 29.0 0.00 0.00 0.00 24 1013.1
20260509112550 16 246 19.3 29.0 0.00 0.00 0.00 23 1013.2
20260509112053 16 243 19.3 29.0 0.00 0.00 0.00 23 1013.2
20260509110602 16 246 20.9 33.8 0.00 0.00 0.00 26 1013.2
20260509105608 16 245 22.5 30.6 0.00 0.00 0.00 29 1013.1